O'Neill, NE

7:19 PM CDT on May 22, 2018 (GMT -0500)
The O'Neill Municipal-Baker

Weather History for KONL - September, 2011

Change the Weather History Date:

Friday, September 2, 2011

  Actual Average Record
Temperature  
Mean Temperature 66 °F -  
Max Temperature 71 °F 83 °F 102 °F (1956)
Min Temperature 62 °F 56 °F 39 °F (1952)
Cooling Degree Days 2    
Growing Degree Days 16 (Base 50)    
Moisture  
Dew Point 63 °F    
Average Humidity 91    
Maximum Humidity 100    
Minimum Humidity 83    
Precipitation  
Precipitation 0.80 in - - ()
Sea Level Pressure  
Sea Level Pressure 29.95 in    
Wind  
Wind Speed 11 mph (North)    
Max Wind Speed 29 mph    
Max Gust Speed 53 mph    
Visibility 8 miles    
Events Rain , Thunderstorm    
Averages and records for this station are not official NWS values.
T = Trace of Precipitation, MM = Missing Value Source: NWS Daily Summary

Daily Weather History Graph

Daily Weather History Graph

Search for Another Location

Airport or City:

Astronomy

Sep. 02, 2011 Rise Set
Actual Time 7:00 AM CDT 8:07 PM CDT
Civil Twilight 6:31 AM CDT 8:36 PM CDT
Nautical Twilight 5:57 AM CDT 9:10 PM CDT
Astronomical Twilight 5:20 AM CDT 9:46 PM CDT
Moon 12:43 PM CDT (9/2) 10:33 PM CDT (9/2)
Length of Visible Light 14h 04m
Length of Day
13h 06m
Waxing Crescent, 28% of the Moon is Illuminated
Sep 2
Waxing Crescent
Sep 4
First Quarter
Sep 12
Full
Sep 20
Last Quarter
Sep 27
New

Hourly Weather History & Observations

Time (CDT) Temp. Dew Point Humidity Pressure Visibility Wind Dir Wind Speed Gust Speed Precip Events Conditions
12:15 AM 71.6 °F 68.0 °F 88% 29.85 in 10.0 mi North 9.2 mph - N/A   Clear
12:35 AM 71.6 °F 68.0 °F 88% 29.93 in 10.0 mi NNW 18.4 mph - N/A Thunderstorm Scattered Clouds
12:55 AM 71.6 °F 68.0 °F 88% 29.93 in 10.0 mi North 21.9 mph 26.5 mph N/A Rain Light Rain
1:15 AM 69.8 °F 66.2 °F 88% 29.91 in 10.0 mi North 13.8 mph 24.2 mph N/A Rain Light Rain
1:35 AM 68.0 °F 64.4 °F 88% 29.91 in 10.0 mi North 15.0 mph 19.6 mph N/A Thunderstorm Thunderstorm
1:55 AM 68.0 °F 64.4 °F 88% 29.88 in 10.0 mi NNE 13.8 mph 23.0 mph N/A Thunderstorm Clear
2:15 AM 68.0 °F 64.4 °F 88% 29.89 in 1.5 mi North 28.8 mph 52.9 mph 0.20 in Rain , Thunderstorm Heavy Thunderstorms and Rain
2:35 AM 68.0 °F 64.4 °F 88% 29.85 in 7.0 mi NE 17.3 mph 21.9 mph 0.30 in Rain , Thunderstorm Light Thunderstorms and Rain
2:55 AM 68.0 °F 64.4 °F 88% 29.84 in 10.0 mi NE 19.6 mph - 0.30 in Thunderstorm Scattered Clouds
3:15 AM 68.0 °F 64.4 °F 88% 29.87 in 10.0 mi North 12.7 mph 19.6 mph N/A Thunderstorm Clear
3:35 AM 68.0 °F 64.4 °F 88% 29.90 in 10.0 mi North 9.2 mph 16.1 mph N/A Rain , Thunderstorm Light Thunderstorms and Rain
3:55 AM 66.2 °F 64.4 °F 94% 29.98 in 5.0 mi NW 16.1 mph 28.8 mph 0.09 in Rain , Thunderstorm Heavy Thunderstorms and Rain
4:15 AM 64.4 °F 64.4 °F 100% 29.88 in 2.0 mi ENE 20.7 mph 25.3 mph 0.41 in Rain , Thunderstorm Rain
4:35 AM 64.4 °F 64.4 °F 100% 29.89 in 7.0 mi NNE 12.7 mph 21.9 mph 0.41 in Thunderstorm Mostly Cloudy
4:55 AM 64.4 °F 62.6 °F 94% 29.88 in 10.0 mi NE 12.7 mph 20.7 mph 0.41 in Thunderstorm Mostly Cloudy
5:15 AM 64.4 °F 62.6 °F 94% 29.88 in 10.0 mi NNE 6.9 mph 16.1 mph N/A   Scattered Clouds
5:35 AM 64.4 °F 62.6 °F 94% 29.93 in 10.0 mi North 8.1 mph - N/A   Scattered Clouds
5:55 AM 64.4 °F 62.6 °F 94% 29.97 in 10.0 mi NNW 8.1 mph - N/A   Overcast
6:15 AM 64.4 °F 62.6 °F 94% 30.03 in 10.0 mi WNW 10.4 mph - N/A   Overcast
6:35 AM 62.6 °F 60.8 °F 94% 30.00 in 10.0 mi North 15.0 mph 21.9 mph N/A Rain , Thunderstorm Light Thunderstorms and Rain
6:55 AM 62.6 °F 60.8 °F 94% 29.98 in 10.0 mi North 9.2 mph - N/A   Overcast
7:15 AM 62.6 °F 60.8 °F 94% 29.98 in 10.0 mi North 10.4 mph - N/A   Mostly Cloudy
7:35 AM 62.6 °F 60.8 °F 94% 29.95 in 10.0 mi North 15.0 mph 20.7 mph N/A   Scattered Clouds
7:55 AM 62.6 °F 60.8 °F 94% 29.92 in 10.0 mi ENE 13.8 mph - N/A Thunderstorm Clear
8:15 AM 62.6 °F 60.8 °F 94% 29.97 in 10.0 mi North 9.2 mph - N/A   Scattered Clouds
8:35 AM 62.6 °F 60.8 °F 94% 29.96 in 10.0 mi East 8.1 mph - N/A Rain , Thunderstorm Light Thunderstorms and Rain
8:55 AM 62.6 °F 60.8 °F 94% 29.99 in 5.0 mi WNW 11.5 mph - N/A Rain Light Rain
9:15 AM 62.6 °F 60.8 °F 94% 29.98 in 5.0 mi NW 11.5 mph - N/A   Light Drizzle
9:35 AM 62.6 °F 60.8 °F 94% 29.98 in 7.0 mi NW 11.5 mph - N/A Thunderstorm Thunderstorm
9:55 AM 62.6 °F 60.8 °F 94% 29.99 in 7.0 mi North 8.1 mph - N/A   Overcast
10:15 AM 62.6 °F 60.8 °F 94% 29.97 in 7.0 mi North 10.4 mph - N/A   Overcast
10:35 AM 62.6 °F 60.8 °F 94% 29.95 in 7.0 mi North 12.7 mph - N/A   Overcast
10:55 AM 62.6 °F 62.6 °F 100% 29.96 in 10.0 mi North 11.5 mph - N/A   Overcast
11:15 AM 64.4 °F 62.6 °F 94% 30.00 in 10.0 mi NNE 4.6 mph - N/A   Overcast
11:35 AM 64.4 °F 62.6 °F 94% 30.01 in 10.0 mi ENE 3.5 mph - N/A   Overcast
11:55 AM 64.4 °F 62.6 °F 94% 29.99 in 10.0 mi North 4.6 mph - N/A   Overcast
12:15 PM 64.4 °F 62.6 °F 94% 30.00 in 7.0 mi North 4.6 mph - N/A   Overcast
12:35 PM 64.4 °F 62.6 °F 94% 29.99 in 7.0 mi North 5.8 mph - N/A   Overcast
12:55 PM 64.4 °F 62.6 °F 94% 30.00 in 7.0 mi Calm Calm - N/A   Overcast
1:15 PM 64.4 °F 62.6 °F 94% 29.99 in 7.0 mi NNW 4.6 mph - N/A   Overcast
1:35 PM 64.4 °F 62.6 °F 94% 29.99 in 7.0 mi NNW 4.6 mph - N/A   Overcast
1:55 PM 64.4 °F 62.6 °F 94% 29.98 in 7.0 mi NNW 4.6 mph - N/A   Overcast
2:15 PM 66.2 °F 62.6 °F 88% 29.97 in 7.0 mi NNW 3.5 mph - N/A   Overcast
2:35 PM 66.2 °F 62.6 °F 88% 29.97 in 7.0 mi NNW 4.6 mph - N/A   Overcast
2:55 PM 66.2 °F 62.6 °F 88% 29.97 in 7.0 mi North 5.8 mph - N/A   Overcast
3:15 PM 66.2 °F 62.6 °F 88% 29.96 in 7.0 mi North 3.5 mph - N/A   Overcast
3:35 PM 66.2 °F 62.6 °F 88% 29.96 in 7.0 mi North 3.5 mph - N/A   Overcast
3:55 PM 68.0 °F 64.4 °F 88% 29.95 in 7.0 mi NE 3.5 mph - N/A   Overcast
4:15 PM 68.0 °F 62.6 °F 83% 29.95 in 10.0 mi NNE 3.5 mph - N/A   Overcast
4:35 PM 68.0 °F 64.4 °F 88% 29.94 in 7.0 mi NE 4.6 mph - N/A   Overcast
4:55 PM 68.0 °F 64.4 °F 88% 29.94 in 10.0 mi NNE 4.6 mph - N/A   Overcast
5:15 PM 69.8 °F 64.4 °F 83% 29.93 in 10.0 mi NE 3.5 mph - N/A   Overcast
5:35 PM 69.8 °F 64.4 °F 83% 29.93 in 10.0 mi ENE 3.5 mph - N/A   Overcast
5:55 PM 69.8 °F 64.4 °F 83% 29.93 in 10.0 mi Calm Calm - N/A   Overcast
6:15 PM 69.8 °F 64.4 °F 83% 29.93 in 10.0 mi ESE 3.5 mph - N/A   Mostly Cloudy
6:35 PM 69.8 °F 64.4 °F 83% 29.93 in 10.0 mi East 3.5 mph - N/A   Mostly Cloudy
6:55 PM 69.8 °F 64.4 °F 83% 29.93 in 10.0 mi ENE 3.5 mph - N/A   Mostly Cloudy
7:15 PM 69.8 °F 64.4 °F 83% 29.92 in 10.0 mi Calm Calm - N/A   Overcast
7:35 PM 68.0 °F 64.4 °F 88% 29.91 in 10.0 mi ENE 4.6 mph - N/A   Overcast
7:55 PM 68.0 °F 64.4 °F 88% 29.90 in 7.0 mi Calm Calm - N/A   Mostly Cloudy
8:15 PM 68.0 °F 64.4 °F 88% 29.90 in 7.0 mi East 4.6 mph - N/A   Mostly Cloudy
8:35 PM 66.2 °F 64.4 °F 94% 29.90 in 5.0 mi ENE 4.6 mph - N/A   Mostly Cloudy
8:55 PM 66.2 °F 64.4 °F 94% 29.91 in 5.0 mi East 4.6 mph - N/A   Mostly Cloudy
9:15 PM 64.4 °F 64.4 °F 100% 29.92 in 5.0 mi East 4.6 mph - N/A   Scattered Clouds
9:35 PM 66.2 °F 64.4 °F 94% 29.92 in 5.0 mi East 5.8 mph - N/A   Scattered Clouds
9:55 PM 66.2 °F 64.4 °F 94% 29.93 in 7.0 mi ESE 6.9 mph - N/A   Mostly Cloudy
10:15 PM 66.2 °F 64.4 °F 94% 29.93 in 7.0 mi ESE 3.5 mph - N/A   Overcast
10:35 PM 66.2 °F 64.4 °F 94% 29.92 in 5.0 mi ESE 4.6 mph - N/A   Overcast
10:55 PM 64.4 °F 64.4 °F 100% 29.92 in 5.0 mi Calm Calm - N/A   Scattered Clouds
11:15 PM 64.4 °F 64.4 °F 100% 29.91 in 4.0 mi Calm Calm - N/A   Scattered Clouds
11:35 PM 64.4 °F 62.6 °F 94% 29.91 in 2.0 mi Calm Calm - N/A   Clear
11:55 PM 62.6 °F 62.6 °F 100% 29.91 in 2.5 mi Calm Calm - N/A   Clear